Location: ?kun?ru
(16.3916°N, 80.8194°E)
Time: 14:33:42
(UTC+00:00)

USA 238 - Pass Details

Date: 19 May 2025
Orbit: 897 x 1314 km, 63.4° (Epoch: 11 June)

Event Time Altitude Azimuth Distance (km) Brightness Sun altitude
Rises 23:21:43 0° 327° (NNW) 4,177 6.7 -10.4°
Reaches altitude 10° 23:24:32 10° 322° (NW) 3,250 6.1 -9.8°
Maximum altitude 23:32:13 53° 248° (WSW) 1,561 4.2 -8.1°
Drops below altitude 10° 23:40:06 10° 174° (S) 3,320 6.1 -6.4°
Sets 23:43:00 0° 169° (S) 4,272 6.7 -5.7°
